Location: Fort Worth, Tx
(32.7431°N, 97.3695°W)
Time: 00:06:11
(UTC-04:00)

Vanguard 2 - Pass Details

Date: 01 March 2024
Orbit: 552 x 2916 km, 32.9° (Epoch: 24 April)

Event Time Altitude Azimuth Distance (km) Brightness Sun altitude
Rises 19:45:49 0° 254° (WSW) 3,725 13.3 -4.7°
Reaches altitude 10° 19:48:00 10° 253° (WSW) 2,999 12.3 -5.2°
Maximum altitude 19:55:38 82° 167° (SSE) 1,603 9.1 -6.8°
Enters shadow 20:08:42 10° 82° (E) 4,910 10.9 -9.5°
